Location: Crescent
(42.8242°N, 73.7329°W)
Time: 21:32:45
(UTC+00:00)

Vanguard 2 Rocket - Pass Details

Date: 24 February 2026
Orbit: 553 x 3287 km, 32.9° (Epoch: 7 March)

Event Time Altitude Azimuth Distance (km) Brightness Sun altitude
Rises 17:42:39 0° 258° (WSW) 7,214 11.7 37.3°
Reaches altitude 10° 17:47:34 10° 256° (WSW) 6,233 11.6 37.1°
Maximum altitude 18:06:49 60° 184° (S) 3,135 11.1 36.2°
Drops below altitude 10° 18:20:18 10° 109° (ESE) 4,543 10.5 35.4°
Sets 18:23:16 0° 105° (ESE) 5,232 10.7 35.2°
